Weather History for KBDL - April, 2013

Change the Weather History Date:

Monday, April 1, 2013

  Actual Average Record
Temperature  
Mean Temperature 47 °F 44 °F  
Max Temperature 62 °F 54 °F 78 °F (1967)
Min Temperature 32 °F 33 °F 9 °F (1970)
Degree Days  
Heating Degree Days 18 21  
Month to date heating degree days 18 21  
Since 1 July heating degree days 5030 5302  
Cooling Degree Days 0 0  
Month to date cooling degree days 0 0  
Year to date cooling degree days 0 0  
Moisture  
Dew Point 36 °F    
Average Humidity 70    
Maximum Humidity 100    
Minimum Humidity 39    
Precipitation  
Precipitation 0.03 in 0.12 in 2.36 in (1976)
Month to date precipitation 0.03 0.12  
Year to date precipitation 8.14 9.86  
Snow  
Snow 0.00 in 0.10 in 11.40 in (1997)
Month to date snowfall 0.0 0.1  
Since 1 July snowfall 56.9 39.2  
Snow Depth 0.00 in    
Sea Level Pressure  
Sea Level Pressure 29.67 in    
Wind  
Wind Speed 10 mph (WNW)    
Max Wind Speed 30 mph    
Max Gust Speed 39 mph    
Visibility 8 miles    
Events Rain    
T = Trace of Precipitation, MM = Missing Value Source: NWS Daily Summary

Daily Weather History Graph

Daily Weather History Graph

Search for Another Location

Airport or City:

Trip Planner

Search our weather history database for the weather conditions in past years. The results will help you decide how hot, cold, wet, or windy it might be!

Date:

Astronomy

Apr. 01, 2013 Rise Set
Actual Time 6:33 AM EDT 7:16 PM EDT
Civil Twilight 6:04 AM EDT 7:44 PM EDT
Nautical Twilight 5:31 AM EDT 8:18 PM EDT
Astronomical Twilight 4:57 AM EDT 8:52 PM EDT
Moon 12:25 AM EDT (4/1) 10:12 AM EDT (4/1)
Length of Visible Light 13h 39m
Length of Day
12h 43m
Waning Gibbous, 67% of the Moon is Illuminated
Apr 1
Waning Gibbous
Apr 3
Last Quarter
Apr 10
New
Apr 18
First Quarter
Apr 25
Full

Hourly Weather History & Observations

Time (EDT) Temp. Windchill Dew Point Humidity Pressure Visibility Wind Dir Wind Speed Gust Speed Precip Events Conditions
12:28 AM 42.8 °F 39.3 °F 42.8 °F 100% 29.66 in 5.0 mi NNW 5.8 mph - 0.11 in Rain Light Rain
12:51 AM 43.0 °F 39.5 °F 42.1 °F 97% 29.65 in 4.0 mi NNW 5.8 mph - 0.12 in Rain Light Rain
1:22 AM 42.8 °F 38.0 °F 42.8 °F 100% 29.64 in 2.5 mi NNW 8.1 mph - 0.01 in Rain Light Rain
1:51 AM 43.0 °F 37.7 °F 42.1 °F 97% 29.63 in 2.5 mi North 9.2 mph - 0.02 in   Light Drizzle
1:53 AM 42.8 °F 38.0 °F 42.8 °F 100% 29.62 in 2.5 mi North 8.1 mph - 0.00 in   Light Drizzle
2:07 AM 42.8 °F 38.0 °F 42.8 °F 100% 29.62 in 4.0 mi North 8.1 mph - 0.00 in   Light Drizzle
2:51 AM 43.0 °F 38.8 °F 41.0 °F 93% 29.63 in 9.0 mi NNW 6.9 mph - 0.00 in   Overcast
3:51 AM 42.1 °F 37.7 °F 41.0 °F 96% 29.63 in 10.0 mi NW 6.9 mph - N/A   Mostly Cloudy
4:51 AM 43.0 °F 40.3 °F 39.9 °F 89% 29.65 in 10.0 mi WSW 4.6 mph - N/A   Overcast
5:51 AM 43.0 °F 41.3 °F 41.0 °F 93% 29.66 in 10.0 mi SSE 3.5 mph - N/A   Overcast
6:43 AM 42.8 °F 41.1 °F 39.2 °F 87% 29.66 in 10.0 mi Variable 3.5 mph - N/A   Mostly Cloudy
6:51 AM 42.1 °F 37.7 °F 39.0 °F 89% 29.66 in 10.0 mi SSW 6.9 mph - N/A   Mostly Cloudy
7:51 AM 44.1 °F - 39.9 °F 85% 29.65 in 10.0 mi Calm Calm - N/A   Mostly Cloudy
8:51 AM 46.0 °F 44.8 °F 39.9 °F 79% 29.65 in 10.0 mi SSW 3.5 mph - N/A   Mostly Cloudy
9:51 AM 51.1 °F - 43.0 °F 74% 29.65 in 10.0 mi SSW 10.4 mph - N/A   Mostly Cloudy
10:51 AM 55.9 °F - 42.1 °F 60% 29.61 in 10.0 mi SW 8.1 mph - N/A   Mostly Cloudy
11:51 AM 59.0 °F - 39.9 °F 49% 29.60 in 10.0 mi SW 12.7 mph 23.0 mph N/A   Mostly Cloudy
12:51 PM 61.0 °F - 36.0 °F 39% 29.58 in 10.0 mi SW 17.3 mph 32.2 mph N/A   Mostly Cloudy
1:51 PM 60.1 °F - 36.0 °F 41% 29.56 in 10.0 mi WSW 18.4 mph 24.2 mph N/A   Mostly Cloudy
2:51 PM 54.0 °F - 43.0 °F 66% 29.57 in 10.0 mi WNW 16.1 mph - 0.01 in   Overcast
3:51 PM 48.0 °F - 39.9 °F 74% 29.62 in 7.0 mi WNW 21.9 mph 33.4 mph 0.00 in Rain Light Rain
4:51 PM 42.1 °F 34.9 °F 34.0 °F 73% 29.68 in 10.0 mi NW 13.8 mph 24.2 mph 0.00 in   Overcast
5:51 PM 39.9 °F 31.8 °F 30.0 °F 68% 29.71 in 10.0 mi NW 15.0 mph 24.2 mph N/A   Overcast
6:51 PM 41.0 °F 36.4 °F 28.0 °F 60% 29.72 in 10.0 mi NNW 6.9 mph 19.6 mph N/A   Mostly Cloudy
7:51 PM 39.0 °F 30.3 °F 23.0 °F 53% 29.75 in 10.0 mi NW 16.1 mph 20.7 mph N/A   Partly Cloudy
8:51 PM 37.0 °F 30.4 °F 17.1 °F 44% 29.79 in 10.0 mi NNW 9.2 mph - N/A   Clear
9:51 PM 36.0 °F 27.1 °F 17.1 °F 46% 29.83 in 10.0 mi NW 13.8 mph - N/A   Clear
10:51 PM 34.0 °F 27.2 °F 17.1 °F 50% 29.85 in 10.0 mi NW 8.1 mph - N/A   Clear
11:51 PM 33.1 °F 26.1 °F 16.0 °F 50% 29.86 in 10.0 mi NW 8.1 mph 20.7 mph N/A   Clear